Allentown, PA

9:08 PM EST on December 09, 2019 (GMT -0500)
Allentown

Weather History for KXLL - May, 2019

Change the Weather History Date:

Wednesday, May 8, 2019

  Actual Average (KABE) Record (KABE)
Temperature  
Mean Temperature 62 °F -  
Max Temperature 69 °F 66 °F 93 °F (1936)
Min Temperature 55 °F 44 °F 30 °F (1997)
Degree Days  
Heating Degree Days 3    
Growing Degree Days 12 (Base 50)    
Moisture  
Dew Point 52 °F    
Average Humidity 72    
Maximum Humidity 100    
Minimum Humidity 49    
Precipitation  
Precipitation 0.00 in - - ()
Sea Level Pressure  
Sea Level Pressure 30.21 in    
Wind  
Wind Speed 5 mph (NE)    
Max Wind Speed 10 mph    
Max Gust Speed -    
Visibility 10 miles    
Events      
Averages and records for this station are not official NWS values.
T = Trace of Precipitation, MM = Missing Value Source: NWS Daily Summary

Daily Weather History Graph

Daily Weather History Graph

Search for Another Location

Airport or City:

Astronomy

May. 08, 2019 Rise Set
Actual Time 5:52 AM EDT 8:04 PM EDT
Civil Twilight 5:22 AM EDT 8:35 PM EDT
Nautical Twilight 4:45 AM EDT 9:12 PM EDT
Astronomical Twilight 4:04 AM EDT 9:53 PM EDT
Moon 8:47 AM EDT (5/8) No Moon Set
Length of Visible Light 15h 12m
Length of Day
14h 12m
Waxing Crescent, 15% of the Moon is Illuminated
May 8
Waxing Crescent
May 11
First Quarter
May 18
Full
May 26
Last Quarter
Jun 3
New

Hourly Weather History & Observations

Time (EDT) Temp. Dew Point Humidity Pressure Visibility Wind Dir Wind Speed Gust Speed Precip Events Conditions
12:15 AM 60.8 °F 60.8 °F 100% 30.17 in 10.0 mi NNE 4.6 mph - N/A   Mostly Cloudy
12:35 AM 60.8 °F 59.0 °F 94% 30.17 in 10.0 mi NNE 4.6 mph - N/A   Mostly Cloudy
12:55 AM 60.8 °F 59.0 °F 94% 30.17 in 10.0 mi NNE 6.9 mph - N/A   Overcast
1:15 AM 60.8 °F 59.0 °F 94% 30.18 in 10.0 mi North 8.1 mph - N/A   Overcast
1:35 AM 59.0 °F 55.4 °F 88% 30.18 in 10.0 mi NNE 4.6 mph - N/A   Overcast
1:55 AM 59.0 °F 55.4 °F 88% 30.18 in 10.0 mi NNE 4.6 mph - N/A   Overcast
2:15 AM 59.0 °F 55.4 °F 88% 30.18 in 10.0 mi North 4.6 mph - N/A   Overcast
2:35 AM 59.0 °F 55.4 °F 88% 30.18 in 10.0 mi NNE 4.6 mph - N/A   Overcast
2:55 AM 59.0 °F 55.4 °F 88% 30.18 in 10.0 mi North 3.5 mph - N/A   Mostly Cloudy
3:15 AM 57.2 °F 55.4 °F 94% 30.18 in 10.0 mi North 3.5 mph - N/A   Overcast
3:35 AM 59.0 °F 53.6 °F 82% 30.17 in 10.0 mi NE 3.5 mph - N/A   Overcast
3:55 AM 57.2 °F 55.4 °F 94% 30.18 in 10.0 mi North 4.6 mph - N/A   Mostly Cloudy
4:15 AM 59.0 °F 53.6 °F 82% 30.18 in 10.0 mi North 3.5 mph - N/A   Overcast
4:35 AM 57.2 °F 53.6 °F 88% 30.18 in 10.0 mi NNE 5.8 mph - N/A   Overcast
4:55 AM 57.2 °F 53.6 °F 88% 30.18 in 10.0 mi NE 6.9 mph - N/A   Mostly Cloudy
5:15 AM 55.4 °F 53.6 °F 94% 30.19 in 10.0 mi NE 5.8 mph - N/A   Mostly Cloudy
5:35 AM 55.4 °F 51.8 °F 88% 30.19 in 10.0 mi NNE 10.4 mph - N/A   Overcast
5:55 AM 55.4 °F 50.0 °F 82% 30.20 in 10.0 mi NNE 6.9 mph - N/A   Overcast
6:15 AM 55.4 °F 50.0 °F 82% 30.20 in 10.0 mi NE 4.6 mph - N/A   Overcast
6:35 AM 55.4 °F 51.8 °F 88% 30.21 in 10.0 mi NNE 4.6 mph - N/A   Overcast
6:55 AM 55.4 °F 51.8 °F 88% 30.22 in 10.0 mi NNE 5.8 mph - N/A   Mostly Cloudy
7:15 AM 55.4 °F 51.8 °F 88% 30.22 in 10.0 mi NNE 8.1 mph - N/A   Scattered Clouds
7:35 AM 55.4 °F 51.8 °F 88% 30.23 in 10.0 mi NE 5.8 mph - N/A   Mostly Cloudy
7:55 AM 55.4 °F 50.0 °F 82% 30.24 in 10.0 mi NNE 8.1 mph - N/A   Overcast
8:15 AM 55.4 °F 50.0 °F 82% 30.24 in 10.0 mi NNE 6.9 mph - N/A   Overcast
8:35 AM 57.2 °F 46.4 °F 67% 30.24 in 10.0 mi NE 8.1 mph - N/A   Overcast
8:55 AM 57.2 °F 48.2 °F 72% 30.24 in 10.0 mi NE 6.9 mph - N/A   Overcast
9:15 AM 59.0 °F 48.2 °F 67% 30.24 in 10.0 mi ENE 8.1 mph - N/A   Overcast
9:35 AM 59.0 °F 48.2 °F 67% 30.25 in 10.0 mi ENE 8.1 mph - N/A   Overcast
9:55 AM 59.0 °F 48.2 °F 67% 30.26 in 10.0 mi ENE 9.2 mph - N/A   Overcast
10:15 AM 59.0 °F 50.0 °F 72% 30.26 in 10.0 mi NE 6.9 mph - N/A   Overcast
10:35 AM 59.0 °F 50.0 °F 72% 30.27 in 10.0 mi NE 8.1 mph - N/A   Overcast
10:55 AM 60.8 °F 50.0 °F 68% 30.27 in 10.0 mi NNE 8.1 mph - N/A   Overcast
11:15 AM 60.8 °F 50.0 °F 68% 30.26 in 10.0 mi ENE 8.1 mph - N/A   Overcast
11:35 AM 60.8 °F 50.0 °F 68% 30.26 in 10.0 mi NE 9.2 mph - N/A   Overcast
11:55 AM 62.6 °F 50.0 °F 63% 30.25 in 10.0 mi NE 8.1 mph - N/A   Overcast
12:15 PM 62.6 °F 50.0 °F 63% 30.24 in 10.0 mi NNE 6.9 mph - N/A   Overcast
12:35 PM 64.4 °F 50.0 °F 59% 30.24 in 10.0 mi ENE 5.8 mph - N/A   Overcast
12:55 PM 64.4 °F 50.0 °F 59% 30.24 in 10.0 mi NE 5.8 mph - N/A   Overcast
1:15 PM 66.2 °F 51.8 °F 60% 30.22 in 10.0 mi East 5.8 mph - N/A   Overcast
1:35 PM 68.0 °F 51.8 °F 56% 30.22 in 10.0 mi East 5.8 mph - N/A   Overcast
1:55 PM 66.2 °F 51.8 °F 60% 30.22 in 10.0 mi NE 4.6 mph - N/A   Mostly Cloudy
2:15 PM 68.0 °F 51.8 °F 56% 30.21 in 10.0 mi NNE 8.1 mph - N/A   Scattered Clouds
2:35 PM 68.0 °F 51.8 °F 56% 30.22 in 10.0 mi North 6.9 mph - N/A   Scattered Clouds
2:55 PM 68.0 °F 50.0 °F 52% 30.21 in 10.0 mi SE 4.6 mph - N/A   Scattered Clouds
3:15 PM 69.8 °F 50.0 °F 49% 30.21 in 10.0 mi SSW 3.5 mph - N/A   Scattered Clouds
3:35 PM 69.8 °F 50.0 °F 49% 30.20 in 10.0 mi NNE 4.6 mph - N/A   Scattered Clouds
3:55 PM 68.0 °F 50.0 °F 52% 30.20 in 10.0 mi Calm Calm - N/A   Scattered Clouds
4:15 PM 69.8 °F 50.0 °F 49% 30.19 in 10.0 mi NE 4.6 mph - N/A   Scattered Clouds
4:35 PM 69.8 °F 50.0 °F 49% 30.18 in 10.0 mi Calm Calm - N/A   Scattered Clouds
4:55 PM 69.8 °F 51.8 °F 53% 30.18 in 10.0 mi SE 4.6 mph - N/A   Scattered Clouds
5:15 PM 69.8 °F 51.8 °F 53% 30.19 in 10.0 mi South 5.8 mph - N/A   Scattered Clouds
5:35 PM 68.0 °F 51.8 °F 56% 30.19 in 10.0 mi South 5.8 mph - N/A   Scattered Clouds
5:55 PM 68.0 °F 53.6 °F 60% 30.19 in 10.0 mi South 6.9 mph - N/A   Scattered Clouds
6:15 PM 68.0 °F 53.6 °F 60% 30.19 in 10.0 mi South 5.8 mph - N/A   Mostly Cloudy
6:35 PM 68.0 °F 51.8 °F 56% 30.19 in 10.0 mi South 6.9 mph - N/A   Mostly Cloudy
6:50 PM 68.0 °F 51.8 °F 56% 30.19 in 10.0 mi South 3.5 mph - N/A   Mostly Cloudy
7:15 PM 68.0 °F 51.8 °F 56% 30.19 in 10.0 mi South 3.5 mph - N/A   Overcast
7:35 PM 66.2 °F 53.6 °F 64% 30.19 in 10.0 mi South 3.5 mph - N/A   Overcast
7:55 PM 64.4 °F 51.8 °F 64% 30.19 in 10.0 mi SSE 3.5 mph - N/A   Mostly Cloudy
8:15 PM 64.4 °F 53.6 °F 68% 30.20 in 10.0 mi Calm Calm - N/A   Mostly Cloudy
8:35 PM 64.4 °F 53.6 °F 68% 30.21 in 10.0 mi Calm Calm - N/A   Mostly Cloudy
8:55 PM 62.6 °F 53.6 °F 72% 30.22 in 10.0 mi Calm Calm - N/A   Overcast
9:15 PM 62.6 °F 53.6 °F 72% 30.22 in 10.0 mi Calm Calm - N/A   Scattered Clouds
9:35 PM 60.8 °F 53.6 °F 77% 30.23 in 10.0 mi Calm Calm - N/A   Scattered Clouds
9:55 PM 62.6 °F 53.6 °F 72% 30.23 in 10.0 mi South 5.8 mph - N/A   Mostly Cloudy
10:15 PM 62.6 °F 55.4 °F 77% 30.24 in 10.0 mi SSE 10.4 mph - N/A   Scattered Clouds
10:35 PM 60.8 °F 53.6 °F 77% 30.24 in 10.0 mi South 8.1 mph - N/A   Clear
10:55 PM 60.8 °F 53.6 °F 77% 30.24 in 10.0 mi South 8.1 mph - N/A   Clear
11:15 PM 60.8 °F 53.6 °F 77% 30.25 in 10.0 mi SSW 4.6 mph - N/A   Clear
11:35 PM 59.0 °F 51.8 °F 77% 30.25 in 10.0 mi SW 4.6 mph - N/A   Clear
11:55 PM 59.0 °F 51.8 °F 77% 30.25 in 10.0 mi WSW 4.6 mph - N/A   Clear